2022年5月23日

时间 代码 天气 温度 能见度 乌云 METAR/SPECI
09:00
V
23 °C 10 km+ - 310°   310° 8 kt METAR LFMP 230700Z AUTO 31008KT 280V360 9999 FEW031 23/16 Q1008 NOSIG
08:30
V
22 °C 10 km+ - 340°   340° 6 kt METAR LFMP 230630Z AUTO 34006KT 300V010 9999 FEW052 22/16 Q1008 NOSIG
08:00
V
22 °C 10 km+ - 300°   300° 7 kt METAR LFMP 230600Z AUTO 30007KT 270V330 CAVOK 22/16 Q1008 NOSIG
07:30
V
20 °C 10 km+ - 250°   250° 3 kt METAR LFMP 230530Z AUTO 25003KT 220V280 9999 FEW029 20/17 Q1008 NOSIG
07:00
M
20 °C 10 km+ 2.800 ft 230°   230° 4 kt METAR LFMP 230500Z AUTO 23004KT 9999 OVC028 20/18 Q1008 TEMPO 4000 BR BKN006 BECMG 32010KT
06:30
M
20 °C 10 km+ 2.300 ft 230°   230° 4 kt METAR LFMP 230430Z AUTO 23004KT 9999 OVC023 20/17 Q1008 TEMPO 4000 BR BKN006 BECMG 32010KT
06:00
M
20 °C 10 km+ 2.100 ft Var   Var 1 kt METAR LFMP 230400Z AUTO VRB01KT 9999 BKN021 BKN030 BKN190 20/17 Q1008 TEMPO 4000 BR BKN006
05:30
M
20 °C 10 km+ 2.800 ft 010°   010° 3 kt METAR LFMP 230330Z AUTO 01003KT 310V040 9999 BKN028 BKN033 BKN240 20/16 Q1008 TEMPO 4000 BR BKN006
05:00
M
21 °C 10 km+ 2.200 ft 320°   320° 7 kt METAR LFMP 230300Z AUTO 32007KT 270V350 9999 BKN022 BKN027 21/17 Q1009 TEMPO 4000 BR BKN006
04:30
M
20 °C 10 km+ 1.800 ft 320°   320° 5 kt METAR LFMP 230230Z AUTO 32005KT 9999 OVC018 20/17 Q1009
04:00
M
20 °C 10 km+ 1.500 ft 010°   010° 3 kt METAR LFMP 230200Z AUTO 01003KT 320V040 9999 BKN015 OVC021 20/17 Q1008
03:30
M
20 °C 10 km+ 1.800 ft 030°   030° 6 kt METAR LFMP 230130Z AUTO 03006KT 9999 OVC018 20/17 Q1009
03:00
M
20 °C 10 km+ 1.700 ft 030°   030° 5 kt METAR LFMP 230100Z AUTO 03005KT 9999 OVC017 20/17 Q1009
02:30
M
21 °C 10 km+ 1.300 ft 070°   070° 3 kt METAR LFMP 230030Z AUTO 07003KT 030V100 9999 OVC013 21/18 Q1008
02:00
M
21 °C 10 km+ 1.300 ft 030°   030° 5 kt METAR LFMP 230000Z AUTO 03005KT 9999 OVC013 21/18 Q1008
01:30
M
21 °C 10 km+ 1.300 ft 340°   340° 6 kt METAR LFMP 222330Z AUTO 34006KT 320V030 9999 OVC013 21/18 Q1009
01:00
M
21 °C 10 km+ 1.200 ft Var   Var 2 kt METAR LFMP 222300Z AUTO VRB02KT 9999 OVC012 21/18 Q1009
00:30
M
21 °C 10 km+ 1.100 ft 060°   060° 3 kt METAR LFMP 222230Z AUTO 06003KT 030V100 9999 OVC011 21/18 Q1009
00:00
M
21 °C 10 km+ 1.000 ft Var   Var 3 kt METAR LFMP 222200Z AUTO VRB03KT 9999 OVC010 21/18 Q1009

2022年5月22日

时间 代码 天气 温度 能见度 乌云 METAR/SPECI
23:30
I
21 °C 10 km+ 900 ft 100°   100° 5 kt METAR LFMP 222130Z AUTO 10005KT 9999 OVC009 21/18 Q1009 TEMPO 4000 BR
23:00
I
21 °C 10 km+ 900 ft 080°   080° 6 kt METAR LFMP 222100Z AUTO 08006KT 9999 OVC009 21/18 Q1009 TEMPO 4000 BR
22:30
V
20 °C 10 km+ - 070°   070° 3 kt METAR LFMP 222030Z AUTO 07003KT 9999 SCT010 20/18 Q1009 TEMPO 4000 BR BKN008
22:00
V
20 °C 10 km+ - 040°   040° 4 kt METAR LFMP 222000Z AUTO 04004KT CAVOK 20/18 Q1009 TEMPO 4000 BR BKN008
21:30
V
21 °C 10 km+ - 050°   050° 5 kt METAR LFMP 221930Z AUTO 05005KT CAVOK 21/18 Q1008 TEMPO 4000 BR BKN008
21:00
V
22 °C 10 km+ - 060°   060° 4 kt METAR LFMP 221900Z AUTO 06004KT CAVOK 22/18 Q1008 NOSIG
20:30
V
23 °C 10 km+ - 090°   090° 4 kt METAR LFMP 221830Z AUTO 09004KT CAVOK 23/18 Q1008 NOSIG
20:00
V
23 °C 10 km+ - 050°   050° 3 kt METAR LFMP 221800Z AUTO 05003KT 350V070 CAVOK 23/18 Q1008 NOSIG
19:30
V
24 °C 10 km+ - 010°   010° 4 kt METAR LFMP 221730Z AUTO 01004KT 340V040 CAVOK 24/18 Q1008 NOSIG
19:00
V
24 °C 10 km+ - 060°   060° 4 kt METAR LFMP 221700Z AUTO 06004KT 010V100 CAVOK 24/18 Q1009 TEMPO FEW026CB
18:30
V
25 °C 10 km+ - 060°   060° 6 kt METAR LFMP 221630Z AUTO 06006KT CAVOK 25/18 Q1009 TEMPO FEW026CB
18:00
V
25 °C 10 km+ - 060°   060° 6 kt METAR LFMP 221600Z AUTO 06006KT 030V100 CAVOK 25/19 Q1009 TEMPO FEW026CB
17:30
V
23 °C 10 km+ - 060°   060° 5 kt METAR LFMP 221530Z AUTO 06005KT 030V090 CAVOK 23/18 Q1009 TEMPO FEW026CB
17:00
V
24 °C 10 km+ - 090°   090° 6 kt METAR LFMP 221500Z AUTO 09006KT CAVOK 24/18 Q1009 TEMPO FEW026CB
16:30
V
24 °C 10 km+ - 090°   090° 6 kt METAR LFMP 221430Z AUTO 09006KT 9999 //////TCU 24/18 Q1010 TEMPO FEW026CB
16:00
V
25 °C 10 km+ - 070°   070° 8 kt METAR LFMP 221400Z AUTO 07008KT 9999 //////TCU 25/17 Q1010 BECMG NSC
15:30
V
26 °C 10 km+ - 070°   070° 8 kt METAR LFMP 221330Z AUTO 07008KT 030V120 9999 //////CB 26/17 Q1010 BECMG NSC
15:00
V
27 °C 10 km+ - 050°   050° 9 kt METAR LFMP 221300Z AUTO 05009KT 020V090 CAVOK 27/18 Q1010 NOSIG
14:30
V
27 °C 10 km+ - 060°   060° 6 kt METAR LFMP 221230Z AUTO 06006KT 020V130 CAVOK 27/19 Q1011 NOSIG
14:00
V
27 °C 10 km+ - 040°   040° 7 kt METAR LFMP 221200Z AUTO 04007KT 350V100 CAVOK 27/18 Q1011 NOSIG
13:30
V
26 °C 10 km+ - 090°   090° 6 kt METAR LFMP 221130Z AUTO 09006KT 040V140 CAVOK 26/18 Q1012 NOSIG
13:00
V
26 °C 10 km+ - 360°   360° 5 kt METAR LFMP 221100Z AUTO 36005KT 300V080 CAVOK 26/18 Q1012 NOSIG
12:30
V
25 °C 10 km+ - 030°   030° 5 kt METAR LFMP 221030Z AUTO 03005KT 330V110 CAVOK 25/17 Q1012 NOSIG
12:00
V
24 °C 10 km+ - 070°   070° 6 kt METAR LFMP 221000Z AUTO 07006KT 040V150 9999 FEW019 24/17 Q1012 NOSIG
11:30
M
24 °C 10 km+ 1.900 ft 070°   070° 5 kt METAR LFMP 220930Z AUTO 07005KT 020V110 9999 BKN019 24/18 Q1013 NOSIG
11:00
M
24 °C 10 km+ 1.900 ft 080°   080° 4 kt METAR LFMP 220900Z AUTO 08004KT 030V180 9999 BKN019 24/18 Q1013 NOSIG
10:30
M
22 °C 10 km+ 1.600 ft Var   Var 3 kt METAR LFMP 220830Z AUTO VRB03KT 9999 OVC016 22/17 Q1013 NOSIG
10:00
M
21 °C 10 km+ 1.500 ft 070°   070° 3 kt METAR LFMP 220800Z AUTO 07003KT 020V140 9999 BKN015 21/17 Q1013 NOSIG
09:30
M
21 °C 10 km+ 1.300 ft Var   Var 3 kt METAR LFMP 220730Z AUTO VRB03KT 9999 OVC013 21/17 Q1013 BECMG FEW009
09:00
M
20 °C 10 km+ 1.300 ft Var   Var 2 kt METAR LFMP 220700Z AUTO VRB02KT 9999 OVC013 20/17 Q1013 TEMPO 4000 BR BECMG FEW009
08:30
M
20 °C 10 km+ 1.300 ft 310°   310° 4 kt METAR LFMP 220630Z AUTO 31004KT 280V350 9999 OVC013 20/17 Q1013 TEMPO 4000 BR BECMG FEW009
08:00
M
19 °C 10 km+ 1.200 ft 290°   290° 3 kt METAR LFMP 220600Z AUTO 29003KT 260V320 9999 OVC012 19/18 Q1013 TEMPO 4000 BR BKN008
07:30
M
19 °C 10 km+ 1.200 ft Var   Var 2 kt METAR LFMP 220530Z AUTO VRB02KT 9999 OVC012 19/17 Q1013 TEMPO 4000 BR BKN008
07:00
M
18 °C 10 km+ 1.300 ft 350°   350° 2 kt METAR LFMP 220500Z AUTO 35002KT 9999 OVC013 18/17 Q1013 TEMPO 4000 BR BKN008
06:30
M
18 °C 10 km+ 1.100 ft 320°   320° 2 kt METAR LFMP 220430Z AUTO 32002KT 9999 OVC011 18/18 Q1013 TEMPO 4000 BR BKN008
06:00
I
18 °C 10 km+ 900 ft Var   Var 2 kt METAR LFMP 220400Z AUTO VRB02KT 9999 FEW002 OVC009 18/17 Q1013 TEMPO 4000 BR
05:30
I
18 °C 7 km 900 ft Var   Var 3 kt METAR LFMP 220330Z AUTO VRB03KT 7000 FEW003 OVC009 18/17 Q1013 TEMPO 4000 BR
05:00
I
17 °C 10 km+ 800 ft 230°   230° 3 kt METAR LFMP 220300Z AUTO 23003KT 9999 BKN008 OVC014 17/16 Q1014 TEMPO 4000 BR
04:30
I
17 °C 10 km+ 800 ft 240°   240° 3 kt METAR LFMP 220230Z AUTO 24003KT 9999 BKN008 17/15 Q1014
04:00
V
17 °C 10 km+ - 230°   230° 2 kt METAR LFMP 220200Z AUTO 23002KT 9999 FEW008 17/16 Q1014
03:30
V
18 °C 10 km+ - 300°   300° 2 kt METAR LFMP 220130Z AUTO 30002KT CAVOK 18/17 Q1014
03:00
V
18 °C 10 km+ - 300°   300° 2 kt METAR LFMP 220100Z AUTO 30002KT CAVOK 18/17 Q1014
02:30
V
18 °C 10 km+ - Var   Var 2 kt METAR LFMP 220030Z AUTO VRB02KT CAVOK 18/17 Q1015
02:00
V
18 °C 10 km+ - 280°   280° 2 kt METAR LFMP 220000Z AUTO 28002KT CAVOK 18/17 Q1015
01:30
V
18 °C 10 km+ - Var   Var 3 kt METAR LFMP 212330Z AUTO VRB03KT CAVOK 18/17 Q1015
01:00
V
18 °C 10 km+ - 240°   240° 3 kt METAR LFMP 212300Z AUTO 24003KT CAVOK 18/17 Q1015
00:30
V
19 °C 10 km+ - Var   000° 0 kt METAR LFMP 212230Z AUTO 00000KT CAVOK 19/17 Q1016
00:00
V
20 °C 10 km+ - 040°   040° 2 kt METAR LFMP 212200Z AUTO 04002KT CAVOK 20/18 Q1016

2022年5月21日

时间 代码 天气 温度 能见度 乌云 METAR/SPECI
23:30
V
20 °C 10 km+ - 030°   030° 3 kt METAR LFMP 212130Z AUTO 03003KT CAVOK 20/18 Q1016 TEMPO BKN010 BECMG 09010KT
23:00
V
20 °C 10 km+ - 050°   050° 2 kt METAR LFMP 212100Z AUTO 05002KT CAVOK 20/18 Q1017 NOSIG
22:30
V
20 °C 10 km+ - Var   Var 2 kt METAR LFMP 212030Z AUTO VRB02KT CAVOK 20/18 Q1017 NOSIG
22:00
V
20 °C 10 km+ - 030°   030° 5 kt METAR LFMP 212000Z AUTO 03005KT CAVOK 20/18 Q1016 BECMG 09010KT
21:30
V
21 °C 10 km+ - 050°   050° 4 kt METAR LFMP 211930Z AUTO 05004KT CAVOK 21/18 Q1016 NOSIG
21:00
V
22 °C 10 km+ - 050°   050° 5 kt METAR LFMP 211900Z AUTO 05005KT CAVOK 22/18 Q1016 NOSIG
20:30
V
23 °C 10 km+ - Var   Var 3 kt METAR LFMP 211830Z AUTO VRB03KT CAVOK 23/18 Q1016 NOSIG
20:00
V
23 °C 10 km+ - 060°   060° 4 kt METAR LFMP 211800Z AUTO 06004KT CAVOK 23/18 Q1016 NOSIG
19:30
V
23 °C 10 km+ - Var   Var 2 kt METAR LFMP 211730Z AUTO VRB02KT CAVOK 23/18 Q1016 NOSIG
19:00
V
23 °C 10 km+ - 110°   110° 3 kt METAR LFMP 211700Z AUTO 11003KT 080V160 CAVOK 23/18 Q1016 NOSIG
18:30
V
24 °C 10 km+ - 110°   110° 4 kt METAR LFMP 211630Z AUTO 11004KT 070V150 CAVOK 24/18 Q1017 NOSIG
18:00
V
25 °C 10 km+ - Var   Var 2 kt METAR LFMP 211600Z AUTO VRB02KT CAVOK 25/17 Q1017 NOSIG
17:30
V
25 °C 10 km+ - 070°   070° 5 kt METAR LFMP 211530Z AUTO 07005KT 020V110 CAVOK 25/17 Q1017 NOSIG
17:00
V
25 °C 10 km+ - 080°   080° 5 kt METAR LFMP 211500Z AUTO 08005KT 040V170 CAVOK 25/18 Q1018 NOSIG
16:30
V
26 °C 10 km+ - 090°   090° 7 kt METAR LFMP 211430Z AUTO 09007KT 040V140 CAVOK 26/18 Q1018 NOSIG
16:00
V
26 °C 10 km+ - 080°   080° 7 kt METAR LFMP 211400Z AUTO 08007KT 030V130 CAVOK 26/18 Q1018 NOSIG
15:30
V
26 °C 10 km+ - 090°   090° 8 kt METAR LFMP 211330Z AUTO 09008KT 050V130 CAVOK 26/18 Q1018 NOSIG
15:00
V
26 °C 10 km+ - 090°   090° 7 kt METAR LFMP 211300Z AUTO 09007KT 030V190 CAVOK 26/18 Q1019 NOSIG
14:30
V
26 °C 10 km+ - 060°   060° 7 kt METAR LFMP 211230Z AUTO 06007KT 020V100 CAVOK 26/17 Q1019 NOSIG
14:00
V
25 °C 10 km+ - 100°   100° 8 kt METAR LFMP 211200Z AUTO 10008KT 060V140 CAVOK 25/18 Q1019 NOSIG
13:30
V
25 °C 10 km+ - 100°   100° 8 kt METAR LFMP 211130Z AUTO 10008KT 050V140 9999 FEW024 25/18 Q1020 NOSIG
13:00
V
25 °C 10 km+ - 080°   080° 10 kt METAR LFMP 211100Z AUTO 08010KT 040V120 9999 FEW024 25/18 Q1020 NOSIG
12:30
V
26 °C 10 km+ - 070°   070° 8 kt METAR LFMP 211030Z AUTO 07008KT 020V120 9999 FEW024 26/18 Q1020 NOSIG
12:00
V
25 °C 10 km+ - 080°   080° 6 kt METAR LFMP 211000Z AUTO 08006KT 020V140 9999 FEW023 25/18 Q1020 NOSIG
11:30
V
24 °C 10 km+ - 050°   050° 6 kt METAR LFMP 210930Z AUTO 05006KT 360V090 9999 SCT023 24/18 Q1021 NOSIG
11:00
V
25 °C 10 km+ - 080°   080° 5 kt METAR LFMP 210900Z AUTO 08005KT 030V150 9999 FEW008 SCT022 25/17 Q1021 NOSIG
10:30
V
24 °C 10 km+ - Var   Var 3 kt METAR LFMP 210830Z AUTO VRB03KT 9999 FEW021 24/18 Q1021 NOSIG
10:00
V
23 °C 10 km+ - 070°   070° 3 kt METAR LFMP 210800Z AUTO 07003KT 030V110 9999 FEW019 23/17 Q1021 NOSIG
09:30
V
23 °C 10 km+ - 070°   070° 3 kt METAR LFMP 210730Z AUTO 07003KT 010V120 9999 FEW017 23/17 Q1022 NOSIG
09:00
V
22 °C 10 km+ - Var   Var 2 kt METAR LFMP 210700Z AUTO VRB02KT CAVOK 22/17 Q1022 NOSIG
08:30
V
20 °C 10 km+ - Var   Var 2 kt METAR LFMP 210630Z AUTO VRB02KT CAVOK 20/16 Q1022 NOSIG
08:00
V
18 °C 10 km+ - Var   Var 1 kt METAR LFMP 210600Z AUTO VRB01KT CAVOK 18/16 Q1022 NOSIG
07:30
V
17 °C 10 km+ - 230°   230° 2 kt METAR LFMP 210530Z AUTO 23002KT CAVOK 17/16 Q1022 BECMG 09010KT
07:00
V
16 °C 10 km+ - Var   000° 0 kt METAR LFMP 210500Z AUTO 00000KT CAVOK 16/15 Q1022 NOSIG
较旧的数据

下载我们的应用程序

在您的手机和平板电脑上轻松访问所有航空天气。
有许多网站上没有的功能,如离线支持和个人机场列表。

Studio Eveline

Benalmádena
España

我们和第三方通过cookies跟踪您在我们网站上的上网行为。如果您继续,我们认为您同意我们的cookie政策。 了解更多